Year,Month,Day,Hour,Minute,Value (Times are PST for temperature in C)
2014,02,10,00,00,-1.10
2014,02,10,00,01,-1.10
2014,02,10,00,03,-1.10
2014,02,10,00,04,-1.10
2014,02,10,00,05,-1.10
2014,02,10,00,06,-1.10
2014,02,10,00,07,-1.10
2014,02,10,00,08,-1.10
2014,02,10,00,09,-1.10
2014,02,10,00,10,-1.10
2014,02,10,00,12,-1.10
2014,02,10,00,13,-1.10
2014,02,10,00,14,-1.10
2014,02,10,00,16,-1.10
2014,02,10,00,17,-1.10
2014,02,10,00,18,-1.10
2014,02,10,00,19,-1.10
2014,02,10,00,20,-1.10
2014,02,10,00,21,-1.10
2014,02,10,00,23,-1.10
2014,02,10,00,24,-1.10
2014,02,10,00,25,-1.10
2014,02,10,00,27,-1.10
2014,02,10,00,29,-1.10
2014,02,10,00,31,-1.10
2014,02,10,00,32,-1.10
2014,02,10,00,33,-1.10
2014,02,10,00,35,-1.10
2014,02,10,00,36,-1.10
2014,02,10,00,37,-1.10
2014,02,10,00,39,-1.10
2014,02,10,00,41,-1.20
2014,02,10,00,42,-1.20
2014,02,10,00,43,-1.20
2014,02,10,00,44,-1.10
2014,02,10,00,45,-1.20
2014,02,10,00,46,-1.20
2014,02,10,00,47,-1.10
2014,02,10,00,49,-1.10
2014,02,10,00,50,-1.20
2014,02,10,00,52,-1.20
2014,02,10,00,53,-1.20
2014,02,10,00,55,-1.20
2014,02,10,00,56,-1.20
2014,02,10,00,58,-1.20
2014,02,10,01,00,-1.20
2014,02,10,01,01,-1.20
2014,02,10,01,02,-1.20
2014,02,10,01,03,-1.20
2014,02,10,01,05,-1.20
2014,02,10,01,06,-1.20
2014,02,10,01,07,-1.20
2014,02,10,01,08,-1.20
2014,02,10,01,09,-1.20
2014,02,10,01,10,-1.10
2014,02,10,01,11,-1.20
2014,02,10,01,12,-1.20
2014,02,10,01,13,-1.10
2014,02,10,01,15,-1.10
2014,02,10,01,16,-1.10
2014,02,10,01,17,-1.10
2014,02,10,01,18,-1.20
2014,02,10,01,20,-1.10
2014,02,10,01,21,-1.20
2014,02,10,01,23,-1.10
2014,02,10,01,24,-1.10
2014,02,10,01,26,-1.10
2014,02,10,01,28,-1.10
2014,02,10,01,29,-1.10
2014,02,10,01,30,-1.10
2014,02,10,01,32,-1.10
2014,02,10,01,33,-1.10
2014,02,10,01,34,-1.10
2014,02,10,01,35,-1.10
2014,02,10,01,36,-1.10
2014,02,10,01,37,-1.10
2014,02,10,01,39,-1.10
2014,02,10,01,40,-1.10
2014,02,10,01,42,-1.10
2014,02,10,01,44,-1.10
2014,02,10,01,45,-1.10
2014,02,10,01,47,-1.10
2014,02,10,01,48,-1.10
2014,02,10,01,49,-1.10
2014,02,10,01,50,-1.10
2014,02,10,01,51,-1.10
2014,02,10,01,52,-1.10
2014,02,10,01,53,-1.10
2014,02,10,01,54,-1.10
2014,02,10,01,55,-1.10
2014,02,10,01,56,-1.10
2014,02,10,01,58,-1.10
2014,02,10,02,00,-1.10
2014,02,10,02,01,-1.10
2014,02,10,02,02,-1.10
2014,02,10,02,03,-1.10
2014,02,10,02,04,-1.10
2014,02,10,02,05,-1.10
2014,02,10,02,06,-1.10
2014,02,10,02,07,-1.10
2014,02,10,02,08,-1.10
2014,02,10,02,09,-1.10
2014,02,10,02,10,-1.10
2014,02,10,02,11,-1.10
2014,02,10,02,12,-1.10
2014,02,10,02,14,-1.10
2014,02,10,02,15,-1.10
2014,02,10,02,16,-1.10
2014,02,10,02,17,-1.10
2014,02,10,02,18,-1.10
2014,02,10,02,20,-1.10
2014,02,10,02,21,-1.10
2014,02,10,02,22,-1.10
2014,02,10,02,23,-1.10
2014,02,10,02,25,-1.10
2014,02,10,02,27,-1.10
2014,02,10,02,28,-1.20
2014,02,10,02,29,-1.10
2014,02,10,02,30,-1.10
2014,02,10,02,31,-1.10
2014,02,10,02,32,-1.10
2014,02,10,02,33,-1.10
2014,02,10,02,34,-1.10
2014,02,10,02,35,-1.10
2014,02,10,02,36,-1.20
2014,02,10,02,37,-1.20
2014,02,10,02,38,-1.20
2014,02,10,02,39,-1.20
2014,02,10,02,40,-1.20
2014,02,10,02,41,-1.20
2014,02,10,02,42,-1.20
2014,02,10,02,43,-1.20
2014,02,10,02,44,-1.20
2014,02,10,02,45,-1.20
2014,02,10,02,46,-1.20
2014,02,10,02,47,-1.20
2014,02,10,02,49,-1.20
2014,02,10,02,50,-1.20
2014,02,10,02,51,-1.20
2014,02,10,02,52,-1.20
2014,02,10,02,53,-1.10
2014,02,10,02,55,-1.20
2014,02,10,02,57,-1.10
2014,02,10,02,58,-1.10
2014,02,10,02,59,-1.10
2014,02,10,03,01,-1.20
2014,02,10,03,03,-1.10
2014,02,10,03,04,-1.10
2014,02,10,03,05,-1.10
2014,02,10,03,06,-1.10
2014,02,10,03,07,-1.10
2014,02,10,03,08,-1.10
2014,02,10,03,09,-1.10
2014,02,10,03,10,-1.10
2014,02,10,03,11,-1.10
2014,02,10,03,12,-1.10
2014,02,10,03,14,-1.10
2014,02,10,03,15,-1.10
2014,02,10,03,16,-1.10
2014,02,10,03,18,-1.10
2014,02,10,03,19,-1.10
2014,02,10,03,20,-1.10
2014,02,10,03,21,-1.10
2014,02,10,03,22,-1.10
2014,02,10,03,23,-1.10
2014,02,10,03,24,-1.10
2014,02,10,03,25,-1.10
2014,02,10,03,27,-1.10
2014,02,10,03,28,-1.10
2014,02,10,03,29,-1.10
2014,02,10,03,31,-1.10
2014,02,10,03,33,-1.10
2014,02,10,03,34,-1.00
2014,02,10,03,36,-1.00
2014,02,10,03,37,-1.00
2014,02,10,03,38,-1.00
2014,02,10,03,39,-1.00
2014,02,10,03,40,-1.00
2014,02,10,03,42,-1.00
2014,02,10,03,43,-1.00
2014,02,10,03,44,-1.00
2014,02,10,03,45,-1.00
2014,02,10,03,47,-1.00
2014,02,10,03,48,-1.00
2014,02,10,03,49,-1.00
2014,02,10,03,51,-1.00
2014,02,10,03,53,-1.00
2014,02,10,03,55,-1.00
2014,02,10,03,56,-0.90
2014,02,10,03,57,-0.90
2014,02,10,03,58,-0.90
2014,02,10,03,59,-0.90
2014,02,10,04,00,-0.90
2014,02,10,04,01,-0.90
2014,02,10,04,03,-0.90
2014,02,10,04,04,-0.90
2014,02,10,04,05,-0.90
2014,02,10,04,06,-0.90
2014,02,10,04,07,-0.90
2014,02,10,04,08,-1.00
2014,02,10,04,09,-0.90
2014,02,10,04,10,-0.90
2014,02,10,04,11,-0.90
2014,02,10,04,13,-1.00
2014,02,10,04,14,-1.00
2014,02,10,04,15,-1.00
2014,02,10,04,16,-1.00
2014,02,10,04,18,-1.00
2014,02,10,04,19,-1.00
2014,02,10,04,20,-1.00
2014,02,10,04,21,-1.00
2014,02,10,04,22,-1.00
2014,02,10,04,23,-1.00
2014,02,10,04,24,-1.00
2014,02,10,04,25,-1.00
2014,02,10,04,26,-1.00
2014,02,10,04,27,-1.00
2014,02,10,04,28,-1.00
2014,02,10,04,30,-1.00
2014,02,10,04,31,-1.00
2014,02,10,04,33,-1.00
2014,02,10,04,34,-1.00
2014,02,10,04,35,-1.00
2014,02,10,04,36,-1.00
2014,02,10,04,37,-1.10
2014,02,10,04,38,-1.10
2014,02,10,04,39,-1.10
2014,02,10,04,40,-1.10
2014,02,10,04,41,-1.00
2014,02,10,04,43,-1.00
2014,02,10,04,45,-1.10
2014,02,10,04,46,-1.10
2014,02,10,04,47,-1.10
2014,02,10,04,48,-1.10
2014,02,10,04,49,-1.10
2014,02,10,04,50,-1.10
2014,02,10,04,52,-1.10
2014,02,10,04,53,-1.10
2014,02,10,04,54,-1.10
2014,02,10,04,55,-1.10
2014,02,10,04,57,-1.10
2014,02,10,04,58,-1.10
2014,02,10,04,59,-1.10
2014,02,10,05,00,-1.10
2014,02,10,05,02,-1.10
2014,02,10,05,04,-1.10
2014,02,10,05,05,-1.10
2014,02,10,05,06,-1.10
2014,02,10,05,07,-1.00
2014,02,10,05,08,-1.10
2014,02,10,05,09,-1.00
2014,02,10,05,10,-1.00
2014,02,10,05,12,-1.00
2014,02,10,05,14,-1.00
2014,02,10,05,16,-1.00
2014,02,10,05,18,-1.00
2014,02,10,05,19,-1.00
2014,02,10,05,20,-1.00
2014,02,10,05,21,-1.00
2014,02,10,05,22,-1.00
2014,02,10,05,23,-1.00
2014,02,10,05,24,-1.00
2014,02,10,05,25,-1.00
2014,02,10,05,26,-1.00
2014,02,10,05,27,-1.00
2014,02,10,05,28,-1.00
2014,02,10,05,29,-1.00
2014,02,10,05,31,-1.00
2014,02,10,05,33,-1.00
2014,02,10,05,34,-1.00
2014,02,10,05,35,-1.00
2014,02,10,05,37,-1.00
2014,02,10,05,38,-1.00
2014,02,10,05,39,-1.00
2014,02,10,05,40,-1.00
2014,02,10,05,41,-1.00
2014,02,10,05,43,-1.00
2014,02,10,05,44,-1.00
2014,02,10,05,45,-1.00
2014,02,10,05,46,-1.00
2014,02,10,05,48,-1.00
2014,02,10,05,49,-1.10
2014,02,10,05,50,-1.10
2014,02,10,05,51,-1.10
2014,02,10,05,52,-1.10
2014,02,10,05,53,-1.10
2014,02,10,05,55,-1.10
2014,02,10,05,56,-1.10
2014,02,10,05,58,-1.10
2014,02,10,05,59,-1.10
2014,02,10,06,00,-1.10
2014,02,10,06,01,-1.10
2014,02,10,06,03,-1.10
2014,02,10,06,04,-1.10
2014,02,10,06,05,-1.10
2014,02,10,06,06,-1.10
2014,02,10,06,07,-1.10
2014,02,10,06,08,-1.10
2014,02,10,06,09,-1.10
2014,02,10,06,10,-1.10
2014,02,10,06,11,-1.20
2014,02,10,06,13,-1.20
2014,02,10,06,14,-1.20
2014,02,10,06,15,-1.20
2014,02,10,06,16,-1.20
2014,02,10,06,18,-1.20
2014,02,10,06,19,-1.20
2014,02,10,06,20,-1.20
2014,02,10,06,21,-1.20
2014,02,10,06,22,-1.20
2014,02,10,06,23,-1.20
2014,02,10,06,24,-1.20
2014,02,10,06,25,-1.20
2014,02,10,06,27,-1.20
2014,02,10,06,28,-1.20
2014,02,10,06,29,-1.20
2014,02,10,06,30,-1.20
2014,02,10,06,31,-1.20
2014,02,10,06,32,-1.20
2014,02,10,06,33,-1.20
2014,02,10,06,34,-1.20
2014,02,10,06,35,-1.20
2014,02,10,06,36,-1.20
2014,02,10,06,38,-1.20
2014,02,10,06,39,-1.20
2014,02,10,06,41,-1.20
2014,02,10,06,42,-1.20
2014,02,10,06,43,-1.20
2014,02,10,06,44,-1.20
2014,02,10,06,45,-1.20
2014,02,10,06,47,-1.20
2014,02,10,06,48,-1.20
2014,02,10,06,49,-1.20
2014,02,10,06,51,-1.20
2014,02,10,06,52,-1.20
2014,02,10,06,53,-1.20
2014,02,10,06,54,-1.20
2014,02,10,06,55,-1.20
2014,02,10,06,56,-1.20
2014,02,10,06,57,-1.20
2014,02,10,06,58,-1.20
2014,02,10,06,59,-1.20
2014,02,10,07,00,-1.20
2014,02,10,07,01,-1.20
2014,02,10,07,02,-1.20
2014,02,10,07,04,-1.20
2014,02,10,07,05,-1.20
2014,02,10,07,06,-1.20
2014,02,10,07,07,-1.20
2014,02,10,07,08,-1.20
2014,02,10,07,09,-1.20
2014,02,10,07,10,-1.20
2014,02,10,07,11,-1.20
2014,02,10,07,12,-1.20
2014,02,10,07,14,-1.20
2014,02,10,07,15,-1.20
2014,02,10,07,17,-1.20
2014,02,10,07,19,-1.20
2014,02,10,07,21,-1.20
2014,02,10,07,23,-1.20
2014,02,10,07,24,-1.20
2014,02,10,07,25,-1.10
2014,02,10,07,27,-1.10
2014,02,10,07,28,-1.20
2014,02,10,07,29,-1.20
2014,02,10,07,30,-1.10
2014,02,10,07,31,-1.20
2014,02,10,07,32,-1.10
2014,02,10,07,34,-1.10
2014,02,10,07,35,-1.10
2014,02,10,07,37,-1.10
2014,02,10,07,38,-1.10
2014,02,10,07,39,-1.10
2014,02,10,07,40,-1.10
2014,02,10,07,41,-1.20
2014,02,10,07,42,-1.10
2014,02,10,07,43,-1.10
2014,02,10,07,45,-1.10
2014,02,10,07,46,-1.10
2014,02,10,07,47,-1.10
2014,02,10,07,48,-1.10
2014,02,10,07,49,-1.10
2014,02,10,07,50,-1.10
2014,02,10,07,51,-1.10
2014,02,10,07,53,-1.10
2014,02,10,07,54,-1.10
2014,02,10,07,56,-1.10
2014,02,10,07,57,-1.10
2014,02,10,07,59,-1.10
2014,02,10,08,01,-1.10
2014,02,10,08,02,-1.10
2014,02,10,08,03,-1.10
2014,02,10,08,04,-1.10
2014,02,10,08,05,-1.10
2014,02,10,08,06,-1.10
2014,02,10,08,07,-1.10
2014,02,10,08,08,-1.10
2014,02,10,08,09,-1.00
2014,02,10,08,10,-1.00
2014,02,10,08,11,-1.00
2014,02,10,08,13,-1.00
2014,02,10,08,14,-1.00
2014,02,10,08,15,-1.00
2014,02,10,08,17,-1.00
2014,02,10,08,18,-1.00
2014,02,10,08,19,-1.00
2014,02,10,08,20,-1.00
2014,02,10,08,22,-1.00
2014,02,10,08,23,-1.00
2014,02,10,08,24,-1.00
2014,02,10,08,25,-0.90
2014,02,10,08,26,-0.90
2014,02,10,08,28,-0.90
2014,02,10,08,29,-0.90
2014,02,10,08,30,-0.90
2014,02,10,08,31,-0.90
2014,02,10,08,32,-0.90
2014,02,10,08,33,-0.90
2014,02,10,08,34,-0.90
2014,02,10,08,36,-0.90
2014,02,10,08,37,-0.90
2014,02,10,08,38,-0.90
2014,02,10,08,39,-0.90
2014,02,10,08,40,-0.90
2014,02,10,08,41,-0.90
2014,02,10,08,42,-0.90
2014,02,10,08,43,-0.90
2014,02,10,08,44,-0.90
2014,02,10,08,46,-0.90
2014,02,10,08,48,-0.80
2014,02,10,08,49,-0.80
2014,02,10,08,50,-0.80
2014,02,10,08,52,-0.80
2014,02,10,08,53,-0.80
2014,02,10,08,54,-0.80
2014,02,10,08,55,-0.70
2014,02,10,08,56,-0.70
2014,02,10,08,57,-0.70
2014,02,10,08,58,-0.70
2014,02,10,09,00,-0.60
2014,02,10,09,02,-0.60
2014,02,10,09,03,-0.60
2014,02,10,09,05,-0.50
2014,02,10,09,06,-0.50
2014,02,10,09,07,-0.50
2014,02,10,09,08,-0.40
2014,02,10,09,09,-0.40
2014,02,10,09,11,-0.40
2014,02,10,09,12,-0.40
2014,02,10,09,13,-0.50
2014,02,10,09,15,-0.50
2014,02,10,09,17,-0.40
2014,02,10,09,19,-0.40
2014,02,10,09,21,-0.40
2014,02,10,09,22,-0.30
2014,02,10,09,24,-0.30
2014,02,10,09,25,-0.30
2014,02,10,09,26,-0.30
2014,02,10,09,27,-0.30
2014,02,10,09,28,-0.30
2014,02,10,09,30,-0.20
2014,02,10,09,31,-0.20
2014,02,10,09,32,-0.20
2014,02,10,09,33,-0.20
2014,02,10,09,34,-0.20
2014,02,10,09,35,-0.20
2014,02,10,09,36,-0.20
2014,02,10,09,37,-0.20
2014,02,10,09,39,-0.20
2014,02,10,09,40,-0.20
2014,02,10,09,41,-0.20
2014,02,10,09,42,-0.20
2014,02,10,09,43,-0.20
2014,02,10,09,44,-0.20
2014,02,10,09,45,-0.20
2014,02,10,09,46,-0.20
2014,02,10,09,47,-0.20
2014,02,10,09,48,-0.20
2014,02,10,09,49,-0.20
2014,02,10,09,50,-0.20
2014,02,10,09,51,-0.20
2014,02,10,09,53,-0.10
2014,02,10,09,55,-0.10
2014,02,10,09,56,-0.10
2014,02,10,09,58,-0.10
2014,02,10,09,59,-0.10
2014,02,10,10,00,-0.10
2014,02,10,10,01,-0.10
2014,02,10,10,02,-0.10
2014,02,10,10,04,-0.10
2014,02,10,10,05,-0.10
2014,02,10,10,06,-0.10
2014,02,10,10,07,-0.10
2014,02,10,10,08,-0.10
2014,02,10,10,09,0.00
2014,02,10,10,10,0.00
2014,02,10,10,12,0.00
2014,02,10,10,14,0.10
2014,02,10,10,16,0.10
2014,02,10,10,17,0.10
2014,02,10,10,19,0.10
2014,02,10,10,20,0.20
2014,02,10,10,22,0.20
2014,02,10,10,23,0.20
2014,02,10,10,24,0.20
2014,02,10,10,25,0.20
2014,02,10,10,26,0.20
2014,02,10,10,27,0.30
2014,02,10,10,28,0.30
2014,02,10,10,30,0.30
2014,02,10,10,32,0.40
2014,02,10,10,33,0.40
2014,02,10,10,35,0.50
2014,02,10,10,36,0.50
2014,02,10,10,37,0.60
2014,02,10,10,39,0.70
2014,02,10,10,40,0.70
2014,02,10,10,41,0.80
2014,02,10,10,42,0.80
2014,02,10,10,43,0.90
2014,02,10,10,45,1.00
2014,02,10,10,46,1.10
2014,02,10,10,48,1.20
2014,02,10,10,49,1.20
2014,02,10,10,50,1.30
2014,02,10,10,51,1.40
2014,02,10,10,52,1.40
2014,02,10,10,54,1.50
2014,02,10,10,56,1.50
2014,02,10,10,57,1.40
2014,02,10,10,58,1.40
2014,02,10,11,00,1.30
2014,02,10,11,02,1.30
2014,02,10,11,04,1.20
2014,02,10,11,05,1.20
2014,02,10,11,06,1.20
2014,02,10,11,07,1.20
2014,02,10,11,08,1.20
2014,02,10,11,09,1.30
2014,02,10,11,10,1.20
2014,02,10,11,12,1.20
2014,02,10,11,13,1.20
2014,02,10,11,14,1.20
2014,02,10,11,15,1.20
2014,02,10,11,16,1.20
2014,02,10,11,18,1.20
2014,02,10,11,19,1.20
2014,02,10,11,21,1.20
2014,02,10,11,22,1.20
2014,02,10,11,23,1.20
2014,02,10,11,25,1.20
2014,02,10,11,26,1.20
2014,02,10,11,27,1.20
2014,02,10,11,28,1.20
2014,02,10,11,29,1.30
2014,02,10,11,30,1.30
2014,02,10,11,32,1.30
2014,02,10,11,34,1.30
2014,02,10,11,35,1.30
2014,02,10,11,37,1.30
2014,02,10,11,38,1.30
2014,02,10,11,39,1.30
2014,02,10,11,41,1.40
2014,02,10,11,42,1.40
2014,02,10,11,43,1.40
2014,02,10,11,44,1.40
2014,02,10,11,45,1.40
2014,02,10,11,46,1.40
2014,02,10,11,48,1.50
2014,02,10,11,49,1.50
2014,02,10,11,50,1.60
2014,02,10,11,52,1.60
2014,02,10,11,53,1.60
2014,02,10,11,54,1.70
2014,02,10,11,56,1.70
2014,02,10,11,58,1.70
2014,02,10,11,59,1.70
2014,02,10,12,00,1.70
2014,02,10,12,01,1.80
2014,02,10,12,02,1.80
2014,02,10,12,04,1.80
2014,02,10,12,05,1.80
2014,02,10,12,06,1.80
2014,02,10,12,07,1.80
2014,02,10,12,08,1.80
2014,02,10,12,09,1.80
2014,02,10,12,10,1.80
2014,02,10,12,11,1.80
2014,02,10,12,13,1.80
2014,02,10,12,14,1.80
2014,02,10,12,15,1.80
2014,02,10,12,16,1.80
2014,02,10,12,17,1.80
2014,02,10,12,18,1.80
2014,02,10,12,19,1.80
2014,02,10,12,20,1.80
2014,02,10,12,22,1.80
2014,02,10,12,23,1.80
2014,02,10,12,24,1.80
2014,02,10,12,25,1.70
2014,02,10,12,26,1.70
2014,02,10,12,27,1.70
2014,02,10,12,28,1.70
2014,02,10,12,29,1.70
2014,02,10,12,30,1.70
2014,02,10,12,31,1.70
2014,02,10,12,33,1.70
2014,02,10,12,35,1.60
2014,02,10,12,36,1.60
2014,02,10,12,37,1.60
2014,02,10,12,38,1.60
2014,02,10,12,39,1.50
2014,02,10,12,40,1.40
2014,02,10,12,41,1.40
2014,02,10,12,42,1.40
2014,02,10,12,43,1.30
2014,02,10,12,44,1.30
2014,02,10,12,45,1.30
2014,02,10,12,47,1.20
2014,02,10,12,48,1.20
2014,02,10,12,49,1.20
2014,02,10,12,51,1.10
2014,02,10,12,52,1.10
2014,02,10,12,53,1.10
2014,02,10,12,55,1.10
2014,02,10,12,56,1.10
2014,02,10,12,58,1.10
2014,02,10,12,59,1.10
2014,02,10,13,00,1.10
2014,02,10,13,01,1.10
2014,02,10,13,02,1.10
2014,02,10,13,03,1.10
2014,02,10,13,04,1.10
2014,02,10,13,05,1.10
2014,02,10,13,06,1.10
2014,02,10,13,07,1.10
2014,02,10,13,08,1.10
2014,02,10,13,09,1.20
2014,02,10,13,10,1.20
2014,02,10,13,11,1.20
2014,02,10,13,12,1.20
2014,02,10,13,13,1.20
2014,02,10,13,14,1.20
2014,02,10,13,15,1.20
2014,02,10,13,16,1.20
2014,02,10,13,17,1.20
2014,02,10,13,18,1.30
2014,02,10,13,20,1.30
2014,02,10,13,21,1.30
2014,02,10,13,22,1.30
2014,02,10,13,24,1.30
2014,02,10,13,25,1.30
2014,02,10,13,26,1.30
2014,02,10,13,28,1.40
2014,02,10,13,30,1.40
2014,02,10,13,31,1.40
2014,02,10,13,32,1.40
2014,02,10,13,33,1.40
2014,02,10,13,34,1.40
2014,02,10,13,35,1.40
2014,02,10,13,36,1.40
2014,02,10,13,37,1.40
2014,02,10,13,38,1.40
2014,02,10,13,39,1.40
2014,02,10,13,40,1.40
2014,02,10,13,41,1.40
2014,02,10,13,42,1.50
2014,02,10,13,44,1.60
2014,02,10,13,45,1.60
2014,02,10,13,46,1.60
2014,02,10,13,47,1.70
2014,02,10,13,48,1.70
2014,02,10,13,49,1.70
2014,02,10,13,50,1.70
2014,02,10,13,51,1.80
2014,02,10,13,52,1.80
2014,02,10,13,54,1.80
2014,02,10,13,55,1.80
2014,02,10,13,56,1.80
2014,02,10,13,57,1.80
2014,02,10,13,59,1.90
2014,02,10,14,01,2.00
2014,02,10,14,03,2.10
2014,02,10,14,04,2.10
2014,02,10,14,05,2.10
2014,02,10,14,06,2.20
2014,02,10,14,07,2.20
2014,02,10,14,08,2.20
2014,02,10,14,09,2.30
2014,02,10,14,10,2.30
2014,02,10,14,12,2.40
2014,02,10,14,13,2.40
2014,02,10,14,15,2.50
2014,02,10,14,17,2.60
2014,02,10,14,18,2.60
2014,02,10,14,19,2.60
2014,02,10,14,20,2.60
2014,02,10,14,21,2.60
2014,02,10,14,23,2.70
2014,02,10,14,24,2.70
2014,02,10,14,25,2.70
2014,02,10,14,27,2.70
2014,02,10,14,28,2.70
2014,02,10,14,29,2.60
2014,02,10,14,31,2.70
2014,02,10,14,33,2.70
2014,02,10,14,34,2.70
2014,02,10,14,35,2.70
2014,02,10,14,37,2.70
2014,02,10,14,38,2.70
2014,02,10,14,39,2.70
2014,02,10,14,40,2.70
2014,02,10,14,41,2.70
2014,02,10,14,43,2.70
2014,02,10,14,45,2.70
2014,02,10,14,46,2.70
2014,02,10,14,47,2.70
2014,02,10,14,48,2.70
2014,02,10,14,49,2.80
2014,02,10,14,51,2.80
2014,02,10,14,52,2.80
2014,02,10,14,53,2.80
2014,02,10,14,54,2.80
2014,02,10,14,56,2.80
2014,02,10,14,57,2.80
2014,02,10,14,58,2.80
2014,02,10,14,59,2.90
2014,02,10,15,00,2.90
2014,02,10,15,01,2.90
2014,02,10,15,03,2.90
2014,02,10,15,04,3.00
2014,02,10,15,05,3.00
2014,02,10,15,06,3.00
2014,02,10,15,07,3.00
2014,02,10,15,08,3.00
2014,02,10,15,09,3.00
2014,02,10,15,10,3.00
2014,02,10,15,11,3.00
2014,02,10,15,13,3.00
2014,02,10,15,14,3.00
2014,02,10,15,15,3.00
2014,02,10,15,17,3.00
2014,02,10,15,18,3.00
2014,02,10,15,19,3.00
2014,02,10,15,20,3.00
2014,02,10,15,22,3.00
2014,02,10,15,23,3.00
2014,02,10,15,24,3.00
2014,02,10,15,25,2.90
2014,02,10,15,26,2.90
2014,02,10,15,27,2.90
2014,02,10,15,29,2.80
2014,02,10,15,30,2.80
2014,02,10,15,31,2.80
2014,02,10,15,32,2.80
2014,02,10,15,33,2.80
2014,02,10,15,34,2.70
2014,02,10,15,35,2.70
2014,02,10,15,36,2.70
2014,02,10,15,38,2.70
2014,02,10,15,39,2.70
2014,02,10,15,41,2.70
2014,02,10,15,42,2.60
2014,02,10,15,43,2.60
2014,02,10,15,44,2.60
2014,02,10,15,46,2.60
2014,02,10,15,47,2.60
2014,02,10,15,48,2.60
2014,02,10,15,49,2.60
2014,02,10,15,50,2.60
2014,02,10,15,51,2.50
2014,02,10,15,53,2.50
2014,02,10,15,54,2.50
2014,02,10,15,55,2.50
2014,02,10,15,56,2.50
2014,02,10,15,57,2.40
2014,02,10,15,58,2.40
2014,02,10,16,00,2.40
2014,02,10,16,01,2.40
2014,02,10,16,02,2.40
2014,02,10,16,04,2.40
2014,02,10,16,05,2.40
2014,02,10,16,06,2.30
2014,02,10,16,07,2.30
2014,02,10,16,08,2.30
2014,02,10,16,09,2.30
2014,02,10,16,10,2.30
2014,02,10,16,11,2.30
2014,02,10,16,13,2.20
2014,02,10,16,14,2.20
2014,02,10,16,15,2.20
2014,02,10,16,16,2.20
2014,02,10,16,17,2.20
2014,02,10,16,18,2.20
2014,02,10,16,19,2.20
2014,02,10,16,20,2.20
2014,02,10,16,22,2.10
2014,02,10,16,23,2.10
2014,02,10,16,25,2.10
2014,02,10,16,26,2.10
2014,02,10,16,27,2.10
2014,02,10,16,28,2.10
2014,02,10,16,29,2.10
2014,02,10,16,31,2.10
2014,02,10,16,32,2.00
2014,02,10,16,33,2.00
2014,02,10,16,34,2.00
2014,02,10,16,36,1.90
2014,02,10,16,37,1.90
2014,02,10,16,38,1.90
2014,02,10,16,39,1.90
2014,02,10,16,40,1.90
2014,02,10,16,42,1.90
2014,02,10,16,43,1.90
2014,02,10,16,44,1.90
2014,02,10,16,45,1.90
2014,02,10,16,46,1.90
2014,02,10,16,48,1.90
2014,02,10,16,49,1.90
2014,02,10,16,50,1.90
2014,02,10,16,51,1.90
2014,02,10,16,52,1.80
2014,02,10,16,54,1.80
2014,02,10,16,56,1.80
2014,02,10,16,58,1.80
2014,02,10,16,59,1.80
2014,02,10,17,00,1.80
2014,02,10,17,01,1.80
2014,02,10,17,03,1.70
2014,02,10,17,04,1.70
2014,02,10,17,05,1.70
2014,02,10,17,06,1.70
2014,02,10,17,07,1.70
2014,02,10,17,08,1.70
2014,02,10,17,09,1.70
2014,02,10,17,10,1.70
2014,02,10,17,11,1.70
2014,02,10,17,12,1.70
2014,02,10,17,13,1.70
2014,02,10,17,14,1.70
2014,02,10,17,16,1.60
2014,02,10,17,18,1.60
2014,02,10,17,20,1.60
2014,02,10,17,21,1.60
2014,02,10,17,22,1.60
2014,02,10,17,23,1.60
2014,02,10,17,24,1.60
2014,02,10,17,25,1.50
2014,02,10,17,26,1.50
2014,02,10,17,27,1.50
2014,02,10,17,29,1.50
2014,02,10,17,30,1.40
2014,02,10,17,31,1.40
2014,02,10,17,32,1.40
2014,02,10,17,33,1.40
2014,02,10,17,34,1.40
2014,02,10,17,35,1.40
2014,02,10,17,36,1.40
2014,02,10,17,37,1.30
2014,02,10,17,39,1.30
2014,02,10,17,40,1.30
2014,02,10,17,42,1.30
2014,02,10,17,43,1.30
2014,02,10,17,44,1.30
2014,02,10,17,46,1.30
2014,02,10,17,48,1.30
2014,02,10,17,50,1.20
2014,02,10,17,51,1.20
2014,02,10,17,52,1.20
2014,02,10,17,53,1.20
2014,02,10,17,55,1.20
2014,02,10,17,56,1.20
2014,02,10,17,57,1.20
2014,02,10,17,58,1.20
2014,02,10,17,59,1.20
2014,02,10,18,00,1.20
2014,02,10,18,02,1.20
2014,02,10,18,04,1.20
2014,02,10,18,05,1.20
2014,02,10,18,06,1.20
2014,02,10,18,07,1.20
2014,02,10,18,08,1.10
2014,02,10,18,09,1.10
2014,02,10,18,10,1.10
2014,02,10,18,11,1.10
2014,02,10,18,12,1.10
2014,02,10,18,13,1.10
2014,02,10,18,15,1.10
2014,02,10,18,16,1.10
2014,02,10,18,17,1.00
2014,02,10,18,18,1.00
2014,02,10,18,19,1.00
2014,02,10,18,20,1.00
2014,02,10,18,22,0.90
2014,02,10,18,23,0.90
2014,02,10,18,25,0.90
2014,02,10,18,26,0.90
2014,02,10,18,27,0.90
2014,02,10,18,28,0.90
2014,02,10,18,30,0.90
2014,02,10,18,31,0.90
2014,02,10,18,33,0.90
2014,02,10,18,34,0.90
2014,02,10,18,35,0.90
2014,02,10,18,36,0.90
2014,02,10,18,37,0.90
2014,02,10,18,38,0.90
2014,02,10,18,39,0.90
2014,02,10,18,40,0.90
2014,02,10,18,41,0.90
2014,02,10,18,42,0.90
2014,02,10,18,44,0.90
2014,02,10,18,45,0.90
2014,02,10,18,47,0.90
2014,02,10,18,49,0.90
2014,02,10,18,50,0.90
2014,02,10,18,51,0.90
2014,02,10,18,53,0.90
2014,02,10,18,54,0.90
2014,02,10,18,56,0.90
2014,02,10,18,57,0.90
2014,02,10,18,58,0.90
2014,02,10,18,59,0.90
2014,02,10,19,00,0.90
2014,02,10,19,01,0.80
2014,02,10,19,02,0.80
2014,02,10,19,04,0.80
2014,02,10,19,05,0.80
2014,02,10,19,06,0.80
2014,02,10,19,07,0.90
2014,02,10,19,08,0.90
2014,02,10,19,09,0.90
2014,02,10,19,10,0.90
2014,02,10,19,11,0.90
2014,02,10,19,12,0.90
2014,02,10,19,13,0.90
2014,02,10,19,15,1.00
2014,02,10,19,16,1.00
2014,02,10,19,18,1.00
2014,02,10,19,19,1.00
2014,02,10,19,21,1.00
2014,02,10,19,22,1.00
2014,02,10,19,23,1.00
2014,02,10,19,25,1.00
2014,02,10,19,26,1.00
2014,02,10,19,28,1.00
2014,02,10,19,30,1.00
2014,02,10,19,32,1.10
2014,02,10,19,33,1.10
2014,02,10,19,34,1.00
2014,02,10,19,35,1.00
2014,02,10,19,37,1.10
2014,02,10,19,38,1.10
2014,02,10,19,39,1.10
2014,02,10,19,40,1.10
2014,02,10,19,41,1.10
2014,02,10,19,43,1.20
2014,02,10,19,44,1.20
2014,02,10,19,45,1.20
2014,02,10,19,47,1.20
2014,02,10,19,48,1.20
2014,02,10,19,49,1.20
2014,02,10,19,50,1.20
2014,02,10,19,51,1.20
2014,02,10,19,52,1.20
2014,02,10,19,54,1.20
2014,02,10,19,55,1.20
2014,02,10,19,56,1.10
2014,02,10,19,57,1.10
2014,02,10,19,58,1.10
2014,02,10,19,59,1.10
2014,02,10,20,00,1.10
2014,02,10,20,01,1.10
2014,02,10,20,02,1.10
2014,02,10,20,04,1.10
2014,02,10,20,05,1.10
2014,02,10,20,06,1.10
2014,02,10,20,07,1.10
2014,02,10,20,08,1.10
2014,02,10,20,09,1.10
2014,02,10,20,10,1.10
2014,02,10,20,11,1.10
2014,02,10,20,12,1.10
2014,02,10,20,13,1.10
2014,02,10,20,14,1.20
2014,02,10,20,15,1.20
2014,02,10,20,16,1.20
2014,02,10,20,17,1.20
2014,02,10,20,18,1.30
2014,02,10,20,20,1.30
2014,02,10,20,22,1.40
2014,02,10,20,23,1.40
2014,02,10,20,24,1.40
2014,02,10,20,25,1.50
2014,02,10,20,26,1.60
2014,02,10,20,28,1.60
2014,02,10,20,29,1.60
2014,02,10,20,30,1.60
2014,02,10,20,32,1.60
2014,02,10,20,34,1.60
2014,02,10,20,36,1.50
2014,02,10,20,37,1.40
2014,02,10,20,38,1.40
2014,02,10,20,40,1.30
2014,02,10,20,42,1.30
2014,02,10,20,43,1.30
2014,02,10,20,45,1.30
2014,02,10,20,46,1.30
2014,02,10,20,47,1.30
2014,02,10,20,49,1.20
2014,02,10,20,51,1.20
2014,02,10,20,52,1.20
2014,02,10,20,53,1.20
2014,02,10,20,54,1.20
2014,02,10,20,55,1.20
2014,02,10,20,56,1.20
2014,02,10,20,57,1.20
2014,02,10,20,58,1.20
2014,02,10,20,59,1.20
2014,02,10,21,01,1.20
2014,02,10,21,03,1.20
2014,02,10,21,04,1.20
2014,02,10,21,05,1.10
2014,02,10,21,06,1.20
2014,02,10,21,07,1.20
2014,02,10,21,08,1.20
2014,02,10,21,09,1.20
2014,02,10,21,11,1.20
2014,02,10,21,13,1.20
2014,02,10,21,14,1.20
2014,02,10,21,15,1.20
2014,02,10,21,16,1.20
2014,02,10,21,18,1.20
2014,02,10,21,19,1.20
2014,02,10,21,21,1.20
2014,02,10,21,22,1.20
2014,02,10,21,24,1.20
2014,02,10,21,25,1.30
2014,02,10,21,27,1.30
2014,02,10,21,28,1.30
2014,02,10,21,29,1.30
2014,02,10,21,31,1.30
2014,02,10,21,32,1.30
2014,02,10,21,34,1.30
2014,02,10,21,35,1.30
2014,02,10,21,37,1.30
2014,02,10,21,39,1.30
2014,02,10,21,40,1.30
2014,02,10,21,41,1.30
2014,02,10,21,42,1.30
2014,02,10,21,43,1.40
2014,02,10,21,44,1.40
2014,02,10,21,45,1.40
2014,02,10,21,47,1.40
2014,02,10,21,48,1.40
2014,02,10,21,49,1.40
2014,02,10,21,50,1.50
2014,02,10,21,52,1.60
2014,02,10,21,54,1.60
2014,02,10,21,55,1.60
2014,02,10,21,56,1.70
2014,02,10,21,58,1.70
2014,02,10,22,00,1.80
2014,02,10,22,02,1.80
2014,02,10,22,04,1.80